User: anonymous   Login
Location: Gwatt
(46.7204°N, 7.6223°E)
Time: 17:36:58
(UTC+00:00)
Language:

ARGOS - Orbit

View from above orbital plane
View from above orbital plane
View from above satellite
View from above satellite

Ground track
Ground track

The orbit data is extracted from the following two-line orbital elements,

1 25634U 99008A   20331.38747962 -.00000003  00000-0  18388-4 0  9997
2 25634  98.4435   2.8164 0010537 162.7010 197.4528 14.19383045126945
Epoch (UTC): 26 November 2020 09:17:58
Eccentricity: 0.0010537
inclination: 98.4435°
perigee height: 820 km
apogee height: 835 km
right ascension of ascending node: 2.8164°
argument of perigee: 162.7010°
revolutions per day: 14.19383045
mean anomaly at epoch: 197.4528°
orbit number at epoch: 12694

The dashed part of the orbit path shows where the satellite is in the earth's shadow,  

DLR